Cando, ND

7:57 AM CDT on September 24, 2017 (GMT -0500)
Cando

Weather History for K9D7 - January, 2013

Change the Weather History Date:

Sunday, January 13, 2013

  Actual Average (KDVL) Record (KDVL)
Temperature  
Mean Temperature -4 °F -  
Max Temperature 5 °F 17 °F 43 °F (1987)
Min Temperature -13 °F 0 °F -28 °F (1977)
Degree Days  
Heating Degree Days 69    
Moisture  
Dew Point -11 °F    
Average Humidity 77    
Maximum Humidity 85    
Minimum Humidity 70    
Precipitation  
Precipitation 0.00 in - - ()
Sea Level Pressure  
Sea Level Pressure 30.11 in    
Wind  
Wind Speed 9 mph (WNW)    
Max Wind Speed 14 mph    
Max Gust Speed -    
Visibility 9 miles    
Events Snow    
Averages and records for this station are not official NWS values.
T = Trace of Precipitation, MM = Missing Value Source: NWS Daily Summary

Daily Weather History Graph

Daily Weather History Graph

Search for Another Location

Airport or City:

Trip Planner

Search our weather history database for the weather conditions in past years. The results will help you decide how hot, cold, wet, or windy it might be!

Date:

Astronomy

Jan. 13, 2013 Rise Set
Actual Time 8:24 AM CST 5:07 PM CST
Civil Twilight 7:49 AM CST 5:42 PM CST
Nautical Twilight 7:09 AM CST 6:22 PM CST
Astronomical Twilight 6:32 AM CST 6:59 PM CST
Moon 9:10 AM CST (1/13) 8:03 PM CST (1/13)
Length of Visible Light 9h 53m
Length of Day
8h 42m
Waxing Crescent, 5% of the Moon is Illuminated
Jan 13
Waxing Crescent
Jan 18
First Quarter
Jan 26
Full
Feb 3
Last Quarter
Feb 10
New

Hourly Weather History & Observations

Time (CST) Temp. Windchill Dew Point Humidity Pressure Visibility Wind Dir Wind Speed Gust Speed Precip Events Conditions
12:15 AM -11.2 °F -29.0 °F -18.4 °F 70% 30.12 in 10.0 mi West 9.2 mph - N/A   Clear
12:35 AM -11.2 °F -29.0 °F -18.4 °F 70% 30.11 in 10.0 mi West 9.2 mph - N/A   Clear
12:55 AM -11.2 °F -30.1 °F -18.4 °F 70% 30.11 in 10.0 mi West 10.4 mph - N/A   Clear
1:15 AM -11.2 °F -31.1 °F -18.4 °F 70% 30.11 in 10.0 mi West 11.5 mph - N/A   Clear
1:35 AM -11.2 °F -29.0 °F -18.4 °F 70% 30.11 in 10.0 mi West 9.2 mph - N/A   Clear
1:55 AM -11.2 °F -29.0 °F -18.4 °F 70% 30.11 in 10.0 mi West 9.2 mph - N/A   Clear
2:15 AM - - - N/A% 30.10 in 10.0 mi West 9.2 mph - N/A   Clear
2:35 AM -13.0 °F -27.0 °F -20.2 °F 70% 30.10 in 10.0 mi West 5.8 mph - N/A   Clear
2:55 AM -13.0 °F -31.3 °F -18.4 °F 77% 30.10 in 10.0 mi West 9.2 mph - N/A   Clear
3:15 AM -13.0 °F -31.3 °F -20.2 °F 70% 30.09 in 10.0 mi West 9.2 mph - N/A   Clear
3:35 AM -13.0 °F -31.3 °F -18.4 °F 77% 30.09 in 10.0 mi West 9.2 mph - N/A   Clear
3:55 AM -11.2 °F -30.1 °F -18.4 °F 70% 30.09 in 10.0 mi West 10.4 mph - N/A   Clear
4:15 AM -11.2 °F -32.1 °F -18.4 °F 70% 30.08 in 9.0 mi West 12.7 mph - N/A   Clear
4:35 AM -11.2 °F -30.1 °F -18.4 °F 70% 30.07 in 10.0 mi WNW 10.4 mph - N/A   Clear
4:55 AM -11.2 °F -27.8 °F -18.4 °F 70% 30.06 in 10.0 mi WNW 8.1 mph - N/A   Clear
5:15 AM -11.2 °F -27.8 °F -18.4 °F 70% 30.05 in 10.0 mi West 8.1 mph - N/A   Clear
5:35 AM -11.2 °F -27.8 °F -18.4 °F 70% 30.05 in 10.0 mi West 8.1 mph - N/A   Clear
6:35 AM -11.2 °F -26.4 °F -18.4 °F 70% 30.06 in 10.0 mi NW 6.9 mph - N/A   Clear
6:55 AM - - - N/A% 30.06 in 10.0 mi NNW 8.1 mph - N/A   Clear
7:15 AM -11.2 °F -23.0 °F -18.4 °F 70% 30.08 in 10.0 mi NNW 4.6 mph - N/A   Clear
7:35 AM -11.2 °F -29.0 °F -16.6 °F 77% 30.08 in 10.0 mi NW 9.2 mph - N/A   Clear
7:55 AM -13.0 °F -30.0 °F -18.4 °F 77% 30.10 in 10.0 mi NW 8.1 mph - N/A   Clear
8:15 AM -11.2 °F -27.8 °F -18.4 °F 70% 30.11 in 10.0 mi WNW 8.1 mph - N/A   Clear
8:35 AM -11.2 °F -27.8 °F -18.4 °F 70% 30.11 in 10.0 mi WNW 8.1 mph - N/A   Clear
8:55 AM -13.0 °F -30.0 °F -20.2 °F 70% 30.12 in 10.0 mi West 8.1 mph - N/A   Scattered Clouds
9:15 AM -11.2 °F -20.6 °F -16.6 °F 77% 30.12 in 10.0 mi West 3.5 mph - N/A   Overcast
9:35 AM -9.4 °F -20.9 °F -14.8 °F 77% 30.12 in 10.0 mi West 4.6 mph - N/A   Overcast
9:55 AM -5.8 °F -18.4 °F - N/A% 30.13 in 10.0 mi WNW 5.8 mph - N/A   Overcast
10:15 AM -4.0 °F -20.2 °F -11.2 °F 71% 30.12 in 10.0 mi WNW 9.2 mph - N/A   Overcast
10:35 AM -4.0 °F -19.0 °F -9.4 °F 78% 30.13 in 4.0 mi WNW 8.1 mph - N/A   Haze
10:55 AM -4.0 °F -19.0 °F -9.4 °F 78% 30.12 in 8.0 mi West 8.1 mph - N/A Snow Light Snow
11:15 AM -2.2 °F -16.8 °F -7.6 °F 78% 30.12 in 5.0 mi West 8.1 mph - N/A Snow Light Snow
11:35 AM -2.2 °F -18.0 °F -7.6 °F 78% 30.12 in 8.0 mi WNW 9.2 mph - N/A   Overcast
11:55 AM -2.2 °F -18.9 °F -7.6 °F 78% 30.12 in 9.0 mi WNW 10.4 mph - N/A   Overcast
12:15 PM -0.4 °F -16.7 °F -5.8 °F 78% 30.12 in 7.0 mi WNW 10.4 mph - N/A Snow Light Snow
12:35 PM -0.4 °F -15.7 °F -5.8 °F 78% 30.11 in 8.0 mi NW 9.2 mph - N/A Snow Light Snow
12:55 PM -0.4 °F -15.7 °F -4.0 °F 85% 30.11 in 8.0 mi WNW 9.2 mph - N/A   Overcast
1:15 PM -0.4 °F -15.7 °F -4.0 °F 85% 30.11 in 7.0 mi WNW 9.2 mph - N/A Snow Light Snow
1:35 PM 1.4 °F -14.5 °F -2.2 °F 85% 30.11 in 5.0 mi NW 10.4 mph - N/A Snow Light Snow
1:55 PM 1.4 °F -11.3 °F -2.2 °F 85% 30.10 in 8.0 mi NW 6.9 mph - N/A   Overcast
2:15 PM 1.4 °F -13.5 °F -2.2 °F 85% 30.10 in 7.0 mi WNW 9.2 mph - N/A   Overcast
2:35 PM 1.4 °F -13.5 °F -2.2 °F 85% 30.11 in 10.0 mi NW 9.2 mph - N/A   Overcast
2:55 PM 1.4 °F -14.5 °F -2.2 °F 85% 30.11 in 9.0 mi NW 10.4 mph - N/A   Overcast
3:15 PM 3.2 °F -11.3 °F -0.4 °F 85% 30.11 in 10.0 mi WNW 9.2 mph - N/A Snow Light Snow
3:35 PM 3.2 °F -10.3 °F -0.4 °F 85% 30.12 in 10.0 mi WNW 8.1 mph - N/A   Overcast
3:55 PM 3.2 °F -11.3 °F -0.4 °F 85% 30.12 in 9.0 mi WNW 9.2 mph - N/A   Overcast
4:55 PM 5.0 °F -6.9 °F -0.4 °F 78% 30.12 in 10.0 mi WNW 6.9 mph - N/A   Overcast
5:15 PM 5.0 °F -9.1 °F -0.4 °F 78% 30.12 in 9.0 mi WNW 9.2 mph - N/A   Overcast
5:35 PM 5.0 °F -10.8 °F -0.4 °F 78% 30.13 in 10.0 mi WNW 11.5 mph - N/A   Overcast
5:55 PM 5.0 °F -9.1 °F -0.4 °F 78% 30.13 in 10.0 mi WNW 9.2 mph - N/A   Overcast
6:15 PM 3.2 °F -11.3 °F -0.4 °F 85% 30.13 in 10.0 mi NNW 9.2 mph - N/A   Overcast
6:35 PM 1.4 °F -9.9 °F -2.2 °F 85% 30.13 in 10.0 mi NNW 5.8 mph - N/A   Overcast
6:55 PM 1.4 °F -9.9 °F -2.2 °F 85% 30.13 in 10.0 mi NW 5.8 mph - N/A   Overcast
7:15 PM -0.4 °F -15.7 °F -4.0 °F 85% 30.14 in 10.0 mi WNW 9.2 mph - N/A   Overcast
7:35 PM -2.2 °F -15.6 °F -7.6 °F 78% 30.14 in 10.0 mi WNW 6.9 mph - N/A   Mostly Cloudy
7:55 PM -5.8 °F -23.4 °F -11.2 °F 77% 30.14 in 10.0 mi WNW 10.4 mph - N/A   Clear
8:15 PM -5.8 °F -21.2 °F -11.2 °F 77% 30.14 in 10.0 mi WNW 8.1 mph - N/A   Clear
8:35 PM -5.8 °F -22.4 °F -11.2 °F 77% 30.14 in 10.0 mi WNW 9.2 mph - N/A   Clear
8:55 PM -9.4 °F -27.9 °F -13.0 °F 84% 30.15 in 10.0 mi West 10.4 mph - N/A   Clear
9:15 PM -7.6 °F -26.6 °F -13.0 °F 77% 30.15 in 10.0 mi West 11.5 mph - N/A   Partly Cloudy
9:35 PM -7.6 °F -25.7 °F -13.0 °F 77% 30.15 in 10.0 mi West 10.4 mph - N/A   Mostly Cloudy
9:55 PM -7.6 °F -25.7 °F -13.0 °F 77% 30.15 in 10.0 mi West 10.4 mph - N/A   Overcast
10:15 PM -9.4 °F -25.6 °F -13.0 °F 84% 30.15 in 10.0 mi WSW 8.1 mph - N/A   Overcast
10:35 PM -7.6 °F -23.4 °F -13.0 °F 77% 30.15 in 10.0 mi West 8.1 mph - N/A   Overcast
10:55 PM -7.6 °F -22.1 °F -13.0 °F 77% 30.15 in 10.0 mi West 6.9 mph - N/A   Overcast
11:15 PM -7.6 °F -22.1 °F -13.0 °F 77% 30.16 in 10.0 mi West 6.9 mph - N/A   Overcast
11:35 PM -4.0 °F -22.1 °F -9.4 °F 78% 30.15 in 10.0 mi WNW 11.5 mph - N/A   Overcast
11:55 PM -2.2 °F -21.5 °F -7.6 °F 78% 30.15 in 10.0 mi West 13.8 mph - N/A   Overcast